When you browse on this site, cookies collect data to enhance your experience and personalize the content and advertising you see.
Visit our Privacy Policy to learn more. By continuing to use the site, you agree to this use of cookies and data.
  • In Hungary
  • List of Countries
  • For 7 days
  • Water Temperature
  • Satellite Maps
  • Weather Map
  • News
  • Weather Widgets
  • user-avatar
    Login

    Hourly Weather Kuzhuntay

    Today, 20 January, Sunday

    Time Temperature Precipitation Wind Pressure Humidity
    00:00 -9°C° 0 mm 2 mps 749 mmHg 95%
    01:00 -8°C° 0 mm 2 mps 749 mmHg 96%
    02:00 -8°C° 0 mm 2 mps 749 mmHg 96%
    03:00 -8°C° 0 mm 2 mps 749 mmHg 96%
    04:00 -7°C° 0 mm 2 mps 748 mmHg 96%
    05:00 -7°C° 0 mm 2 mps 748 mmHg 96%
    06:00 -8°C° 0 mm 3 mps 748 mmHg 96%
    07:00 -7°C° 0 mm 3 mps 747 mmHg 96%
    08:00 -8°C° 0.1 mm 4 mps 747 mmHg 96%
    09:00 -8°C° 0.1 mm 4 mps 747 mmHg 96%
    10:00 -7°C° 0.1 mm 4 mps 747 mmHg 96%
    11:00 -6°C° 0.2 mm 5 mps 747 mmHg 96%
    12:00 -6°C° 0.2 mm 5 mps 747 mmHg 95%
    13:00 -5°C° 0.2 mm 5 mps 747 mmHg 95%
    14:00 -5°C° 0.1 mm 6 mps 747 mmHg 93%
    15:00 -5°C° 0.1 mm 6 mps 747 mmHg 92%
    16:00 -6°C° 0.1 mm 7 mps 748 mmHg 90%
    17:00 -6°C° 0 mm 6 mps 749 mmHg 90%
    18:00 -9°C° 0 mm 6 mps 750 mmHg 90%
    19:00 -11°C° 0 mm 5 mps 750 mmHg 90%
    20:00 -13°C° 0 mm 5 mps 751 mmHg 91%
    21:00 -16°C° 0 mm 4 mps 752 mmHg 91%
    22:00 -18°C° 0 mm 4 mps 753 mmHg 92%
    23:00 -18°C° 0 mm 3 mps 753 mmHg 93%

    Tomorrow, 21 January, Monday

    Time Temperature Precipitation Wind Pressure Humidity
    00:00 -19°C° 0 mm 3 mps 754 mmHg 95%
    01:00 -18°C° 0 mm 2 mps 754 mmHg 96%
    02:00 -19°C° 0 mm 2 mps 755 mmHg 97%
    03:00 -19°C° 0 mm 2 mps 755 mmHg 98%
    04:00 -17°C° 0 mm 1 mps 756 mmHg 99%
    05:00 -17°C° 0 mm 1 mps 756 mmHg 99%
    06:00 -17°C° 0 mm 1 mps 757 mmHg 99%
    07:00 -17°C° 0 mm 1 mps 757 mmHg 99%
    08:00 -17°C° 0 mm 1 mps 757 mmHg 99%
    09:00 -19°C° 0 mm 2 mps 758 mmHg 98%
    10:00 -18°C° 0 mm 2 mps 758 mmHg 98%
    11:00 -18°C° 0 mm 2 mps 758 mmHg 97%
    12:00 -18°C° 0 mm 3 mps 758 mmHg 96%
    13:00 -17°C° 0 mm 3 mps 757 mmHg 96%
    14:00 -17°C° 0 mm 3 mps 757 mmHg 95%
    15:00 -17°C° 0 mm 3 mps 757 mmHg 95%
    16:00 -18°C° 0 mm 3 mps 757 mmHg 94%
    17:00 -18°C° 0 mm 3 mps 756 mmHg 94%
    18:00 -19°C° 0 mm 4 mps 756 mmHg 93%
    19:00 -20°C° 0 mm 4 mps 756 mmHg 93%
    20:00 -19°C° 0 mm 4 mps 755 mmHg 91%
    21:00 -20°C° 0 mm 5 mps 755 mmHg 90%
    22:00 -20°C° 0 mm 6 mps 754 mmHg 88%
    23:00 -20°C° 0 mm 6 mps 754 mmHg 86%

    Day after tomorrow, 22 January, Tuesday

    Time Temperature Precipitation Wind Pressure Humidity
    00:00 -19°C° 0 mm 7 mps 753 mmHg 83%
    01:00 -18°C° 0 mm 7 mps 753 mmHg 81%
    02:00 -17°C° 0 mm 7 mps 752 mmHg 79%
    03:00 -17°C° 0 mm 8 mps 751 mmHg 77%
    04:00 -16°C° 0 mm 8 mps 751 mmHg 76%
    05:00 -15°C° 0.1 mm 9 mps 750 mmHg 79%
    06:00 -15°C° 0.1 mm 9 mps 749 mmHg 83%
    07:00 -14°C° 0.1 mm 9 mps 749 mmHg 86%
    08:00 -11°C° 0.6 mm 9 mps 748 mmHg 88%
    09:00 -9°C° 0.6 mm 10 mps 748 mmHg 91%
    10:00 -8°C° 0.6 mm 10 mps 748 mmHg 93%
    11:00 -7°C° 0.7 mm 10 mps 747 mmHg 93%
    12:00 -5°C° 0.7 mm 10 mps 747 mmHg 92%
    13:00 -4°C° 0.7 mm 10 mps 747 mmHg 92%
    14:00 -4°C° 0.8 mm 9 mps 747 mmHg 93%
    15:00 -4°C° 0.8 mm 8 mps 747 mmHg 93%
    16:00 -4°C° 0.8 mm 7 mps 747 mmHg 94%
    17:00 -6°C° 0.4 mm 6 mps 747 mmHg 94%
    18:00 -8°C° 0.4 mm 5 mps 748 mmHg 93%
    19:00 -11°C° 0.4 mm 4 mps 748 mmHg 93%
    20:00 -14°C° 0 mm 4 mps 749 mmHg 94%
    21:00 -15°C° 0 mm 3 mps 749 mmHg 96%
    22:00 -18°C° 0 mm 3 mps 750 mmHg 97%
    23:00 -17°C° 0 mm 2 mps 750 mmHg 97%

    23 January, Wednesday

    Time Temperature Precipitation Wind Pressure Humidity
    00:00 -18°C° 0 mm 2 mps 751 mmHg 98%
    01:00 -19°C° 0 mm 2 mps 751 mmHg 98%
    02:00 -20°C° 0 mm 2 mps 752 mmHg 97%
    03:00 -20°C° 0 mm 2 mps 752 mmHg 97%
    04:00 -21°C° 0 mm 2 mps 753 mmHg 97%
    05:00 -21°C° 0 mm 2 mps 753 mmHg 96%
    06:00 -23°C° 0 mm 2 mps 754 mmHg 95%
    07:00 -24°C° 0 mm 2 mps 754 mmHg 95%
    08:00 -24°C° 0 mm 2 mps 755 mmHg 95%
    09:00 -24°C° 0 mm 2 mps 755 mmHg 95%
    10:00 -24°C° 0 mm 2 mps 756 mmHg 95%
    11:00 -23°C° 0 mm 2 mps 756 mmHg 95%
    12:00 -23°C° 0 mm 3 mps 757 mmHg 94%
    13:00 -23°C° 0 mm 3 mps 757 mmHg 94%
    14:00 -23°C° 0 mm 3 mps 757 mmHg 95%
    15:00 -23°C° 0 mm 2 mps 758 mmHg 95%
    16:00 -24°C° 0 mm 2 mps 758 mmHg 96%
    17:00 -25°C° 0 mm 2 mps 758 mmHg 96%
    18:00 -26°C° 0 mm 2 mps 759 mmHg 96%
    19:00 -27°C° 0 mm 2 mps 760 mmHg 96%
    20:00 -27°C° 0 mm 2 mps 760 mmHg 95%
    21:00 -27°C° 0 mm 2 mps 760 mmHg 94%
    22:00 -28°C° 0 mm 2 mps 761 mmHg 93%
    23:00 -25°C° 0 mm 1 mps 761 mmHg 93%

    24 January, Thursday

    Time Temperature Precipitation Wind Pressure Humidity
    00:00 -25°C° 0 mm 1 mps 761 mmHg 92%
    01:00 -25°C° 0 mm 1 mps 762 mmHg 92%
    02:00 -25°C° 0 mm 1 mps 762 mmHg 93%
    03:00 -25°C° 0 mm 1 mps 762 mmHg 93%
    04:00 -25°C° 0 mm 1 mps 762 mmHg 94%
    05:00 -25°C° 0 mm 0 mps 763 mmHg 95%
    06:00 -25°C° 0 mm 0 mps 763 mmHg 96%
    07:00 -25°C° 0 mm 0 mps 763 mmHg 97%
    08:00 -24°C° 0 mm 0 mps 764 mmHg 95%
    09:00 -23°C° 0 mm 1 mps 764 mmHg 94%
    10:00 -22°C° 0 mm 1 mps 764 mmHg 92%
    11:00 -21°C° 0 mm 1 mps 764 mmHg 91%
    12:00 -20°C° 0 mm 1 mps 764 mmHg 91%
    13:00 -21°C° 0 mm 2 mps 764 mmHg 90%
    14:00 -21°C° 0 mm 2 mps 764 mmHg 90%
    15:00 -21°C° 0 mm 2 mps 764 mmHg 89%
    16:00 -23°C° 0 mm 2 mps 764 mmHg 89%
    17:00 -23°C° 0 mm 2 mps 764 mmHg 88%
    18:00 -24°C° 0 mm 2 mps 764 mmHg 88%
    19:00 -24°C° 0 mm 2 mps 764 mmHg 87%
    20:00 -25°C° 0 mm 3 mps 764 mmHg 86%
    21:00 -25°C° 0 mm 3 mps 764 mmHg 86%
    22:00 -25°C° 0 mm 3 mps 764 mmHg 85%
    23:00 -25°C° 0 mm 3 mps 764 mmHg 85%

    25 January, Friday

    Time Temperature Precipitation Wind Pressure Humidity
    00:00 -25°C° 0 mm 3 mps 764 mmHg 85%
    01:00 -24°C° 0 mm 3 mps 763 mmHg 85%
    02:00 -24°C° 0 mm 3 mps 763 mmHg 84%
    03:00 -24°C° 0 mm 3 mps 763 mmHg 84%
    04:00 -24°C° 0 mm 3 mps 763 mmHg 84%
    05:00 -24°C° 0 mm 3 mps 763 mmHg 83%
    06:00 -24°C° 0 mm 3 mps 763 mmHg 83%
    07:00 -24°C° 0 mm 3 mps 762 mmHg 82%
    08:00 -24°C° 0 mm 3 mps 762 mmHg 82%
    09:00 -23°C° 0 mm 3 mps 762 mmHg 82%
    10:00 -23°C° 0 mm 3 mps 762 mmHg 82%
    11:00 -22°C° 0 mm 3 mps 762 mmHg 81%
    12:00 -20°C° 0 mm 4 mps 762 mmHg 80%
    13:00 -19°C° 0 mm 4 mps 761 mmHg 80%
    14:00 -19°C° 0 mm 4 mps 761 mmHg 81%
    15:00 -19°C° 0 mm 3 mps 761 mmHg 81%
    16:00 -19°C° 0 mm 3 mps 760 mmHg 82%
    17:00 -19°C° 0 mm 3 mps 760 mmHg 82%
    18:00 -21°C° 0 mm 3 mps 760 mmHg 82%
    19:00 -21°C° 0 mm 3 mps 760 mmHg 82%
    20:00 -21°C° 0 mm 3 mps 760 mmHg 82%
    21:00 -22°C° 0 mm 3 mps 760 mmHg 83%
    22:00 -22°C° 0 mm 3 mps 760 mmHg 83%
    23:00 -22°C° 0 mm 3 mps 759 mmHg 84%
    Show more